Location: Kailua
(21.4020°N, 157.7390°W)
Time: 14:17:08
(UTC-10:00)

Cosmos 2221 Rocket - Visible Passes

Search period start: 26 April 2015 00:00
Search period end: 06 May 2015 00:00
Orbit: 622 x 648 km, 82.5° (Epoch: 26 April)

Date Brightness Start Highest point End Pass type
(mag) Time Alt. Az. Time Alt. Az. Time Alt. Az.
28 Apr 6.8 05:09:37 10° NE 05:12:18 16° ENE 05:15:11 10° ESE visible
29 Apr 5.3 05:30:44 10° NNE 05:34:54 39° E 05:39:04 10° SSE visible
01 May 6.9 04:39:31 10° NE 04:41:20 13° ENE 04:43:25 10° ESE visible
02 May 5.7 05:00:04 10° NNE 05:03:59 30° E 05:07:55 10° SE visible
03 May 3.8 05:21:58 10° N 05:26:26 79° E 05:30:51 10° S visible
05 May 6.0 04:29:28 10° NNE 04:33:02 24° E 04:36:40 10° SE visible
